This is the latest recevied weather packets stored in our database for station/object KC8JWT. If no packets are shown the sender has not sent any weather packets the latest 10 day(s).
| Time | Temp. | Humidity | Pressure | Rain* | Wind** | Luminosity | Snow |
|---|---|---|---|---|---|---|---|
| 1778003418 | 25° C | 54% | 1009.9 hPa | 0 mm | - | 557 W/m² | - |
| 1778003115 | 25° C | 55% | 1010 hPa | 0 mm | - | 482 W/m² | - |
| 1778002811 | 25.56° C | 54% | 1010 hPa | 0 mm | - | 550 W/m² | - |
| 1778002507 | 25° C | 54% | 1010.1 hPa | 0 mm | - | 619 W/m² | - |
| 1778002204 | 25.56° C | 53% | 1009.8 hPa | 0 mm | - | 645 W/m² | - |
| 1778001903 | 25.56° C | 54% | 1009.9 hPa | 0 mm | - | 688 W/m² | - |
| 1778001603 | 25° C | 54% | 1009.5 hPa | 0 mm | - | 673 W/m² | - |
| 1778001299 | 25° C | 54% | 1009.7 hPa | 0 mm | - | 644 W/m² | - |
| 1778000996 | 25.56° C | 56% | 1009.7 hPa | 0 mm | - | 723 W/m² | - |
| 1778000692 | 25° C | 53% | 1009.8 hPa | 0 mm | - | 765 W/m² | - |
| 1778000388 | 25.56° C | 55% | 1009.7 hPa | 0 mm | - | 752 W/m² | - |
| 1778000084 | 25° C | 55% | 1009.9 hPa | 0 mm | - | 776 W/m² | - |
| 1777999780 | 25° C | 54% | 1009.9 hPa | 0 mm | - | 737 W/m² | - |
| 1777999477 | 25° C | 54% | 1009.9 hPa | 0 mm | - | 542 W/m² | - |
| 1777999175 | 25° C | 54% | 1009.9 hPa | 0 mm | - | 727 W/m² | - |
| 1777998873 | 25° C | 55% | 1010 hPa | 0 mm | - | 681 W/m² | - |
| 1777998572 | 25° C | 55% | 1009.7 hPa | 0 mm | - | 724 W/m² | - |
| 1777998267 | 24.44° C | 55% | 1009.9 hPa | 0 mm | - | 682 W/m² | - |
| 1777997964 | 24.44° C | 55% | 1010.1 hPa | 0 mm | - | 590 W/m² | - |
| 1777997661 | 25° C | 55% | 1009.8 hPa | 0 mm | - | 488 W/m² | - |
| 1777997359 | 25° C | 55% | 1009.7 hPa | 0 mm | - | 590 W/m² | - |
| 1777997056 | 25.56° C | 56% | 1009.8 hPa | 0 mm | - | 551 W/m² | - |
| 1777996753 | 25.56° C | 55% | 1009.9 hPa | 0 mm | - | 453 W/m² | - |
| 1777996449 | 26.11° C | 53% | 1009.9 hPa | 0 mm | - | 1044 W/m² | - |
| 1777996146 | 25° C | 55% | 1009.7 hPa | 0 mm | - | 974 W/m² | - |
* Rain latest hour (hover to see other rain measurements)
** Current wind speed in m/s (hover to see current wind gust speed)